Zurück zum Katalog

COSMOS 2251 DEB

AktivLEO
NORAD 35777·DEBRIS·🇷🇺 Russia

Gestartet Jun 16, 1993 von Plesetsk Cosmodrome

Loading…

Nächste Überflüge (nächste 24 Stunden)

TLE

AlterndSource: Space-Track

Epoche: Sep 11, 2026, 08:41 UTC

1 35777U 93036ARX 26254.36187883  .00000252  00000-0  26869-3 0  9996
2 35777  73.7676 247.1008 0447904 101.5019 329.1049 13.41546136833404

Verfolge COSMOS 2251 DEB in Echtzeit mit AllMySat

Download on the App Store